KN4PLO Weather Reports


time (UTC)temp
C
wind
direction
speed
KPH
gust
KPH
rain 1hr
cm
rain 24hr
cm
rain mn
cm
humidity
%
barometer
mb
20260906113756 21 256 3.2 0.0 0.00 2.82 0.00 100
20260906113256 21 233 1.6 0.0 0.00 2.82 0.00 100
20260906112756 21 222 4.8 0.0 0.00 2.82 0.00 100
20260906112727 21 225 4.8 0.0 0.00 2.82 0.00 100
20260906112256 21 280 3.2 0.0 0.00 2.82 0.00 100
20260906111806 21 244 4.8 0.0 0.00 2.82 0.00 100
20260906111756 21 245 4.8 0.0 0.00 2.82 0.00 100
20260906111729 21 244 4.8 0.0 0.00 2.82 0.00 100
20260906111256 21 219 1.6 0.0 0.00 2.82 0.00 100
20260906110756 21 215 1.6 0.0 0.00 2.82 0.00 100
20260906110727 21 214 1.6 0.0 0.00 2.82 0.00 100
20260906110256 21 219 3.2 0.0 0.00 2.82 0.00 100
20260906105756 21 223 3.2 0.0 0.00 2.82 0.00 100
20260906105727 21 223 1.6 0.0 0.00 2.82 0.00 100
20260906105256 21 236 3.2 0.0 0.00 2.82 0.00 100
20260906104756 21 241 3.2 0.0 0.00 2.82 0.00 100
20260906104727 21 250 3.2 0.0 0.00 2.82 0.00 100
20260906104256 21 229 3.2 0.0 0.00 2.82 0.00 100
20260906103756 21 213 1.6 0.0 0.00 2.82 0.00 100
20260906103727 21 207 1.6 0.0 0.00 2.82 0.00 100
20260906103256 21 194 3.2 0.0 0.00 2.82 0.00 100
20260906102727 21 198 1.6 0.0 0.00 2.82 0.00 100
20260906101256 21 211 1.6 0.0 0.00 2.82 0.00 100
20260906100756 21 215 3.2 0.0 0.00 2.82 0.00 100
20260906100727 21 226 3.2 0.0 0.00 2.82 0.00 100
20260906100256 21 217 1.6 0.0 0.00 2.82 0.00 100
20260906095756 22 237 3.2 0.0 0.00 2.82 0.00 100
20260906095728 22 225 3.2 0.0 0.00 2.82 0.00 100
20260906095255 21 346 1.6 0.0 0.00 2.82 0.00 100
20260906094756 21 346 3.2 0.0 0.00 2.82 0.00 100
20260906094727 21 322 1.6 0.0 0.00 2.82 0.00 100
20260906094255 21 341 4.8 0.0 0.00 2.82 0.00 100
20260906093756 21 261 3.2 0.0 0.00 2.82 0.00 100
20260906093727 22 291 1.6 0.0 0.00 2.82 0.00 100
20260906093255 22 257 1.6 0.0 0.00 2.82 0.00 100
20260906092755 22 288 3.2 0.0 0.00 2.82 0.00 100
20260906092730 22 257 3.2 0.0 0.00 2.82 0.00 100
20260906092255 22 252 3.2 0.0 0.00 2.82 0.00 100
20260906091727 22 248 1.6 0.0 0.00 2.82 0.00 100
20260906091255 22 226 1.6 0.0 0.00 2.82 0.00 100
20260906090755 22 268 4.8 0.0 0.00 2.82 0.00 100
20260906090727 22 238 1.6 0.0 0.00 2.82 0.00 100
20260906090255 22 302 1.6 0.0 0.00 2.82 0.00 100
20260906085755 22 232 3.2 0.0 0.00 2.82 0.00 100
20260906085727 22 219 3.2 0.0 0.00 2.82 0.00 100
20260906085255 22 183 3.2 0.0 0.00 2.82 0.00 100
20260906084755 22 218 1.6 0.0 0.00 2.82 0.00 100
20260906084255 22 127 3.2 0.0 0.00 2.82 0.00 100
20260906082755 22 81 1.6 0.0 0.00 2.82 0.00 100
20260906081255 22 92 3.2 0.0 0.00 2.82 0.00 100
20260906080727 22 68 1.6 0.0 0.00 2.82 0.00 100
20260906080255 22 37 1.6 0.0 0.00 2.82 0.00 100
20260906075729 22 15 1.6 0.0 0.00 2.82 0.00 100
20260906075255 22 345 3.2 0.0 0.00 2.82 0.00 100
20260906074727 22 351 1.6 0.0 0.00 2.82 0.00 100
20260906074255 22 286 3.2 0.0 0.00 2.82 0.00 100
20260906073755 22 329 1.6 0.0 0.00 2.82 0.00 100
20260906073727 22 283 3.2 0.0 0.00 2.82 0.00 100
20260906073255 22 227 1.6 0.0 0.00 2.82 0.00 100
20260906072726 22 45 1.6 0.0 0.00 2.82 0.00 100
20260906072255 22 45 1.6 0.0 0.00 2.82 0.00 100
20260906071727 22 57 1.6 0.0 0.00 2.82 0.00 100
20260906071255 22 54 3.2 0.0 0.00 2.82 0.00 100
20260906065727 22 188 1.6 0.0 0.00 2.82 0.00 100
20260906065255 22 188 1.6 0.0 0.00 2.82 0.00 100
20260906064755 22 202 1.6 0.0 0.00 2.82 0.00 100
20260906064726 22 206 1.6 0.0 0.00 2.82 0.00 100
20260906064255 22 209 1.6 0.0 0.00 2.82 0.00 100
20260906063755 22 214 1.6 0.0 0.00 2.82 0.00 100
20260906063726 22 236 3.2 0.0 0.00 2.82 0.00 100
20260906063255 22 250 1.6 0.0 0.00 2.82 0.00 100
20260906062726 22 268 1.6 0.0 0.00 2.82 0.00 100
20260906062255 22 246 1.6 0.0 0.00 2.82 0.00 100
20260906061255 22 241 3.2 0.0 0.00 2.82 0.00 100
20260906060755 22 211 1.6 0.0 0.00 2.82 0.00 100
20260906060727 22 225 1.6 0.0 0.00 2.82 0.00 100
20260906060255 22 168 1.6 0.0 0.00 2.82 0.00 100
20260906055726 22 257 1.6 0.0 0.00 2.82 0.00 100
20260906055255 22 241 3.2 0.0 0.00 2.82 0.00 100
20260906054755 22 276 1.6 0.0 0.00 2.82 0.00 100
20260906054729 22 250 1.6 0.0 0.00 2.82 0.00 100
20260906054255 22 234 1.6 0.0 0.00 2.82 0.00 100
20260906053726 22 341 1.6 0.0 0.00 2.82 0.00 100
20260906053255 22 42 1.6 0.0 0.00 2.82 0.00 100
20260906052728 22 334 3.2 0.0 0.00 2.82 0.00 100
20260906052255 22 161 1.6 0.0 0.00 2.82 0.00 100
20260906051726 22 141 1.6 0.0 0.00 2.82 0.00 100
20260906051255 22 153 1.6 0.0 0.00 2.82 0.00 100
20260906050727 22 87 1.6 0.0 0.00 2.82 0.00 100
20260906050255 22 33 1.6 0.0 0.00 2.82 0.00 100
20260906045755 22 46 3.2 0.0 0.00 2.82 0.00 100
20260906045726 22 56 3.2 0.0 0.00 2.82 0.00 100
20260906045255 22 68 1.6 0.0 0.00 2.82 0.00 100
20260906044755 22 72 3.2 0.0 0.00 2.82 0.00 100
20260906044726 22 63 1.6 0.0 0.00 2.82 0.00 100
20260906044255 22 342 3.2 0.0 0.00 2.82 0.00 100
20260906043755 22 346 8.0 0.0 0.00 2.82 0.00 100
20260906043727 22 349 6.4 0.0 0.00 2.82 0.00 100
20260906043255 22 9 4.8 0.0 0.00 2.82 0.00 100
20260906042755 22 344 3.2 0.0 0.00 2.82 0.00 100
20260906042727 22 345 3.2 0.0 0.00 2.82 0.00 100
20260906042255 22 9 3.2 0.0 0.00 2.82 0.00 100
20260906041726 22 49 1.6 0.0 0.00 2.82 0.00 100
20260906041255 22 46 3.2 0.0 0.00 2.82 0.00 100
20260906040755 22 65 1.6 0.0 0.00 2.82 0.00 100
20260906040726 22 69 1.6 0.0 0.00 2.82 0.00 100
20260906035733 22 346 1.6 0.0 0.00 2.82 2.82 100
20260906035256 22 346 1.6 0.0 0.00 2.82 2.82 100
20260906034756 22 349 3.2 0.0 0.00 2.82 2.82 100
20260906034727 22 336 3.2 0.0 0.00 2.82 2.82 100
20260906034256 22 325 4.8 0.0 0.00 2.82 2.82 100
20260906033756 22 305 9.7 0.0 0.00 2.82 2.82 100
20260906033727 22 286 6.4 0.0 0.00 2.82 2.82 100
20260906033256 22 279 4.8 0.0 0.00 2.82 2.82 100
20260906032756 22 292 3.2 0.0 0.00 2.82 2.82 100
20260906032727 22 317 4.8 0.0 0.00 2.82 2.82 100
20260906032256 22 311 1.6 0.0 0.00 2.82 2.82 100
20260906031756 22 291 1.6 0.0 0.00 2.82 2.82 100
20260906031256 22 299 1.6 0.0 0.00 2.82 2.82 100
20260906030756 22 264 1.6 0.0 0.00 2.82 2.82 100
20260906030727 22 273 6.4 0.0 0.00 2.82 2.82 100
20260906030256 22 241 1.6 0.0 0.00 2.82 2.82 100
20260906025756 22 295 1.6 0.0 0.00 2.82 2.82 100
20260906025727 22 328 1.6 0.0 0.00 2.82 2.82 100
20260906025256 22 319 3.2 0.0 0.00 2.82 2.82 100
20260906024756 22 267 1.6 0.0 0.00 2.82 2.82 100
20260906024727 22 245 1.6 0.0 0.00 2.82 2.82 100
20260906024256 22 236 3.2 0.0 0.00 2.82 2.82 100
20260906023756 22 206 1.6 0.0 0.00 2.82 2.82 100
20260906023727 22 198 1.6 0.0 0.00 2.82 2.82 100
20260906023256 22 117 1.6 0.0 0.00 2.82 2.82 100
20260906022727 22 72 1.6 0.0 0.00 2.82 2.82 100
20260906022256 22 67 6.4 0.0 0.00 2.82 2.82 100
20260906021756 22 38 6.4 0.0 0.00 2.82 2.82 100
20260906021727 22 29 8.0 0.0 0.00 2.82 2.82 100
20260906021256 22 59 6.4 0.0 0.00 2.82 2.82 100
20260906020756 22 64 6.4 0.0 0.00 2.82 2.82 100
20260906020727 22 61 8.0 0.0 0.00 2.82 2.82 100
20260906020256 21 65 8.0 0.0 0.03 2.82 2.82 100
20260906015756 21 50 3.2 0.0 0.41 2.82 2.82 100
20260906015728 21 67 4.8 0.0 0.41 2.82 2.82 100
20260906015256 21 71 6.4 0.0 1.14 2.82 2.82 100
20260906014756 21 103 12.9 0.0 2.24 2.82 2.82 100
20260906014256 21 123 4.8 0.0 2.79 2.82 2.82 100
20260906013756 21 127 6.4 0.0 2.82 2.82 2.82 100
20260906013727 21 119 6.4 0.0 2.82 2.82 2.82 100
20260906013256 21 145 1.6 0.0 2.82 2.82 2.82 100
20260906012756 21 68 3.2 0.0 2.82 2.82 2.82 100
20260906012727 21 79 4.8 0.0 2.82 2.82 2.82 100
20260906012255 21 60 1.6 0.0 2.82 2.82 2.82 100
20260906011755 21 223 1.6 0.0 2.82 2.82 2.82 100
20260906011726 21 249 3.2 0.0 2.82 2.82 2.82 100
20260906011256 21 333 6.4 0.0 2.82 2.82 2.82 100
20260906010755 22 232 8.0 0.0 2.82 2.82 2.82 100
20260906010727 22 190 6.4 0.0 2.82 2.82 2.82 100
20260906010255 -25 111 14.5 0.0 2.79 2.79 2.79 100
20260906005755 22 248 40.2 0.0 2.41 2.41 2.41 100
20260906005727 22 261 40.2 0.0 2.41 2.41 2.41 100
20260906005255 23 255 56.3 0.0 1.68 1.68 1.68 100
20260906004755 23 10 64.4 0.0 0.58 0.58 0.58 100
20260906004728 24 344 17.7 0.0 0.58 0.58 0.58 100
20260906004255 25 23 12.9 0.0 0.03 0.03 0.03 100
20260906003755 27 40 29.0 0.0 0.00 0.00 0.00 100
20260906003255 30 57 14.5 0.0 0.00 0.00 0.00 100
20260906002755 30 149 8.0 0.0 0.00 0.00 0.00 100
20260906002727 30 145 8.0 0.0 0.00 0.00 0.00 100
20260906002255 30 148 16.1 0.0 0.00 0.00 0.00 100
20260906001755 30 202 6.4 0.0 0.00 0.00 0.00 100
20260906001727 30 182 6.4 0.0 0.00 0.00 0.00 100
20260906001255 30 191 3.2 0.0 0.00 0.00 0.00 100
20260906000755 31 255 11.3 0.0 0.00 0.00 0.00 100
20260906000728 31 250 12.9 0.0 0.00 0.00 0.00 100
20260906000256 31 236 11.3 0.0 0.00 0.00 0.00 100
20260905235913 31 232 11.3 0.0 0.00 0.00 0.00 100
20260905235911 31 210 8.0 0.0 0.00 0.00 0.00 100
20260905235905 32 310 4.8 0.0 0.00 0.00 0.00 100
20260905235755 31 252 11.3 0.0 0.00 0.00 0.00 100
20260905235727 31 288 8.0 0.0 0.00 0.00 0.00 100
20260905235255 31 257 16.1 0.0 0.00 0.00 0.00 100
20260905234755 31 233 6.4 0.0 0.00 0.00 0.00 100
20260905234727 31 260 12.9 0.0 0.00 0.00 0.00 100
20260905234255 31 257 11.3 0.0 0.00 0.00 0.00 100
20260905233755 31 256 12.9 0.0 0.00 0.00 0.00 100
20260905233727 31 259 12.9 0.0 0.00 0.00 0.00 100
20260905233255 32 255 11.3 0.0 0.00 0.00 0.00 100
20260905232755 32 236 8.0 0.0 0.00 0.00 0.00 100
20260905232727 32 263 12.9 0.0 0.00 0.00 0.00 100
20260905232255 32 219 8.0 0.0 0.00 0.00 0.00 100
20260905231755 32 240 11.3 0.0 0.00 0.00 0.00 100
20260905231726 32 261 14.5 0.0 0.00 0.00 0.00 100
20260905231255 32 233 11.3 0.0 0.00 0.00 0.00 100
20260905230755 32 249 12.9 0.0 0.00 0.00 0.00 100
20260905230726 32 196 8.0 0.0 0.00 0.00 0.00 100
20260905225755 32 207 17.7 0.0 0.00 0.00 0.00 100
20260905225726 32 218 14.5 0.0 0.00 0.00 0.00 100
20260905225255 32 199 11.3 0.0 0.00 0.00 0.00 100
20260905224755 32 186 16.1 0.0 0.00 0.00 0.00 100
20260905224726 32 194 6.4 0.0 0.00 0.00 0.00 100
20260905224255 33 223 11.3 0.0 0.00 0.00 0.00 100
20260905223755 34 157 22.5 0.0 0.00 0.00 0.00 100
20260905223726 34 157 11.3 0.0 0.00 0.00 0.00 100
20260905223255 35 65 3.2 0.0 0.00 0.00 0.00 100
20260905222755 35 67 6.4 0.0 0.00 0.00 0.00 100
20260905222727 35 87 12.9 0.0 0.00 0.00 0.00 100
20260905222255 35 19 3.2 0.0 0.00 0.00 0.00 100
20260905221755 35 73 8.0 0.0 0.00 0.00 0.00 100
20260905221726 35 61 3.2 0.0 0.00 0.00 0.00 100
20260905221255 35 59 4.8 0.0 0.00 0.00 0.00 100
20260905220755 35 71 3.2 0.0 0.00 0.00 0.00 100
20260905220726 35 64 4.8 0.0 0.00 0.00 0.00 100
20260905220255 35 90 1.6 0.0 0.00 0.00 0.00 100
20260905215755 35 49 6.4 0.0 0.00 0.00 0.00 100
20260905215727 35 63 6.4 0.0 0.00 0.00 0.00 100
20260905215255 35 54 4.8 0.0 0.00 0.00 0.00 100
20260905214755 35 83 6.4 0.0 0.00 0.00 0.00 100
20260905214728 35 49 4.8 0.0 0.00 0.00 0.00 100
20260905214255 35 37 4.8 0.0 0.00 0.00 0.00 100
20260905213755 35 156 3.2 0.0 0.00 0.00 0.00 100
20260905213727 35 153 3.2 0.0 0.00 0.00 0.00 100
20260905213255 35 117 3.2 0.0 0.00 0.00 0.00 100
20260905212755 35 144 4.8 0.0 0.00 0.00 0.00 100
20260905212726 35 61 1.6 0.0 0.00 0.00 0.00 100
20260905212255 35 114 4.8 0.0 0.00 0.00 0.00 100
20260905211755 35 60 3.2 0.0 0.00 0.00 0.00 100
20260905211726 35 351 4.8 0.0 0.00 0.00 0.00 100
20260905211255 35 64 9.7 0.0 0.00 0.00 0.00 100
20260905210755 35 337 14.5 0.0 0.00 0.00 0.00 100
20260905210726 35 26 6.4 0.0 0.00 0.00 0.00 100
20260905210255 35 61 8.0 0.0 0.00 0.00 0.00 100
20260905205755 36 56 9.7 0.0 0.00 0.00 0.00 100
20260905205727 36 29 4.8 0.0 0.00 0.00 0.00 100
20260905205255 36 38 1.6 0.0 0.00 0.00 0.00 100
20260905204755 36 103 3.2 0.0 0.00 0.00 0.00 100
20260905204726 36 53 4.8 0.0 0.00 0.00 0.00 100
20260905204255 35 182 1.6 0.0 0.00 0.00 0.00 100
20260905203755 35 144 3.2 0.0 0.00 0.00 0.00 100
20260905203727 35 140 3.2 0.0 0.00 0.00 0.00 100
20260905203255 35 115 1.6 0.0 0.00 0.00 0.00 100
20260905202755 35 65 6.4 0.0 0.00 0.00 0.00 100
20260905202726 35 56 4.8 0.0 0.00 0.00 0.00 100
20260905202255 35 68 16.1 0.0 0.00 0.00 0.00 100
20260905201755 35 177 6.4 0.0 0.00 0.00 0.00 100
20260905201726 35 146 4.8 0.0 0.00 0.00 0.00 100
20260905201255 36 159 14.5 0.0 0.00 0.00 0.00 100
20260905200755 35 76 1.6 0.0 0.00 0.00 0.00 100
20260905200726 35 344 1.6 0.0 0.00 0.00 0.00 100
20260905200255 35 148 6.4 0.0 0.00 0.00 0.00 100
20260905195755 35 336 3.2 0.0 0.00 0.00 0.00 100
20260905195726 35 49 4.8 0.0 0.00 0.00 0.00 100
20260905195255 35 40 1.6 0.0 0.00 0.00 0.00 100
20260905194755 35 122 3.2 0.0 0.00 0.00 0.00 100
20260905194726 35 121 3.2 0.0 0.00 0.00 0.00 100
20260905194255 35 106 9.7 0.0 0.00 0.00 0.00 100
20260905193755 35 118 9.7 0.0 0.00 0.00 0.00 100
20260905193727 35 26 3.2 0.0 0.00 0.00 0.00 100
20260905193255 35 64 12.9 0.0 0.00 0.00 0.00 100
20260905192755 35 54 3.2 0.0 0.00 0.00 0.00 100
20260905192728 35 33 3.2 0.0 0.00 0.00 0.00 100
20260905192256 35 94 9.7 0.0 0.00 0.00 0.00 100
20260905191727 35 137 6.4 0.0 0.00 0.00 0.00 100
20260905191256 35 26 3.2 0.0 0.00 0.00 0.00 100
20260905190756 35 73 12.9 0.0 0.00 0.00 0.00 100
20260905190727 35 17 4.8 0.0 0.00 0.00 0.00 100
20260905190256 35 111 6.4 0.0 0.00 0.00 0.00 100
20260905185756 35 87 11.3 0.0 0.00 0.00 0.00 100
20260905185727 35 57 6.4 0.0 0.00 0.00 0.00 100
20260905185256 35 119 8.0 0.0 0.00 0.00 0.00 100
20260905184756 35 88 12.9 0.0 0.00 0.00 0.00 100
20260905184727 35 68 16.1 0.0 0.00 0.00 0.00 100
20260905184256 34 114 1.6 0.0 0.00 0.00 0.00 100
20260905183756 34 71 6.4 0.0 0.00 0.00 0.00 100
20260905183727 34 92 9.7 0.0 0.00 0.00 0.00 100
20260905183256 34 57 6.4 0.0 0.00 0.00 0.00 100
20260905182756 34 328 4.8 0.0 0.00 0.00 0.00 100
20260905182727 34 333 9.7 0.0 0.00 0.00 0.00 100
20260905182256 34 45 1.6 0.0 0.00 0.00 0.00 100
20260905181727 33 95 1.6 0.0 0.00 0.00 0.00 100
20260905181256 34 44 8.0 0.0 0.00 0.00 0.00 100
20260905180756 34 127 3.2 0.0 0.00 0.00 0.00 100
20260905180727 34 184 1.6 0.0 0.00 0.00 0.00 100
20260905180256 34 323 6.4 0.0 0.00 0.00 0.00 100
20260905175756 34 49 11.3 0.0 0.00 0.00 0.00 100
20260905175727 34 33 8.0 0.0 0.00 0.00 0.00 100
20260905175256 34 117 1.6 0.0 0.00 0.00 0.00 100
20260905174756 33 46 1.6 0.0 0.00 0.00 0.00 100
20260905174727 33 41 4.8 0.0 0.00 0.00 0.00 100
20260905174256 33 106 3.2 0.0 0.00 0.00 0.00 100
20260905173756 33 34 8.0 0.0 0.00 0.00 0.00 100
20260905173727 33 19 11.3 0.0 0.00 0.00 0.00 100
20260905173256 33 49 9.7 0.0 0.00 0.00 0.00 100
20260905172756 33 227 3.2 0.0 0.00 0.00 0.00 100
20260905172729 32 255 1.6 0.0 0.00 0.00 0.00 100
20260905172256 33 103 4.8 0.0 0.00 0.00 0.00 100
20260905171727 33 86 11.3 0.0 0.00 0.00 0.00 100
20260905171256 33 44 6.4 0.0 0.00 0.00 0.00 100
20260905170756 33 44 4.8 0.0 0.00 0.00 0.00 100
20260905170727 33 9 11.3 0.0 0.00 0.00 0.00 100
20260905170256 33 294 3.2 0.0 0.00 0.00 0.00 100
20260905165756 32 59 6.4 0.0 0.00 0.00 0.00 100
20260905165727 32 84 6.4 0.0 0.00 0.00 0.00 100
20260905165256 33 71 6.4 0.0 0.00 0.00 0.00 100
20260905164755 33 56 4.8 0.0 0.00 0.00 0.00 100
20260905164728 33 11 1.6 0.0 0.00 0.00 0.00 100
20260905164256 33 65 3.2 0.0 0.00 0.00 0.00 100
20260905163755 33 130 3.2 0.0 0.00 0.00 0.00 100
20260905163726 33 71 1.6 0.0 0.00 0.00 0.00 100
20260905163255 32 86 11.3 0.0 0.00 0.00 0.00 100
20260905162755 32 95 9.7 0.0 0.00 0.00 0.00 100
20260905162727 32 96 11.3 0.0 0.00 0.00 0.00 100
20260905162255 32 67 6.4 0.0 0.00 0.00 0.00 100
20260905161755 32 64 12.9 0.0 0.00 0.00 0.00 100
20260905161726 32 33 12.9 0.0 0.00 0.00 0.00 100
20260905161255 32 18 6.4 0.0 0.00 0.00 0.00 100
20260905160755 32 25 4.8 0.0 0.00 0.00 0.00 100
20260905160726 32 61 8.0 0.0 0.00 0.00 0.00 100
20260905160255 32 27 6.4 0.0 0.00 0.00 0.00 100
20260905155755 32 75 3.2 0.0 0.00 0.00 0.00 100
20260905155255 32 59 19.3 0.0 0.00 0.00 0.00 100
20260905154755 32 36 4.8 0.0 0.00 0.00 0.00 100
20260905154728 32 67 3.2 0.0 0.00 0.00 0.00 100
20260905154255 32 306 6.4 0.0 0.00 0.00 0.00 100
20260905153755 32 49 4.8 0.0 0.00 0.00 0.00 100
20260905153728 32 59 12.9 0.0 0.00 0.00 0.00 100
20260905152756 32 341 8.0 0.0 0.00 0.00 0.00 100
20260905152256 31 333 4.8 0.0 0.00 0.00 0.00 100
20260905151756 31 330 4.8 0.0 0.00 0.00 0.00 100
20260905151728 31 338 4.8 0.0 0.00 0.00 0.00 100
20260905151256 31 340 9.7 0.0 0.00 0.00 0.00 100
20260905150756 31 94 1.6 0.0 0.00 0.00 0.00 100
20260905150728 31 11 1.6 0.0 0.00 0.00 0.00 100
20260905150256 31 329 1.6 0.0 0.00 0.00 0.00 100
20260905145756 30 113 1.6 0.0 0.00 0.00 0.00 100
20260905145729 30 209 1.6 0.0 0.00 0.00 0.00 100
20260905145256 30 341 6.4 0.0 0.00 0.00 0.00 100
20260905144756 30 322 8.0 0.0 0.00 0.00 0.00 100
20260905144727 30 296 9.7 0.0 0.00 0.00 0.00 100
20260905144256 30 13 6.4 0.0 0.00 0.00 0.00 100
20260905143756 29 87 1.6 0.0 0.00 0.00 0.00 100
20260905143727 29 52 6.4 0.0 0.00 0.00 0.00 100
20260905143256 29 341 3.2 0.0 0.00 0.00 0.00 100
20260905142756 28 27 3.2 0.0 0.00 0.00 0.00 100
20260905142727 28 351 3.2 0.0 0.00 0.00 0.00 100
20260905142256 28 9 6.4 0.0 0.00 0.00 0.00 100
20260905141756 28 348 6.4 0.0 0.00 0.00 0.00 100
20260905141256 28 351 6.4 0.0 0.00 0.00 0.00 100
20260905140756 28 329 3.2 0.0 0.00 0.00 0.00 100
20260905140728 28 342 4.8 0.0 0.00 0.00 0.00 100
20260905140256 28 348 6.4 0.0 0.00 0.00 0.00 100
20260905135756 27 310 3.2 0.0 0.00 0.00 0.00 100
20260905135728 27 348 4.8 0.0 0.00 0.00 0.00 100
20260905135256 27 317 6.4 0.0 0.00 0.00 0.00 100
20260905134727 27 340 4.8 0.0 0.00 0.00 0.00 100
20260905134256 26 349 1.6 0.0 0.00 0.00 0.00 100
20260905133756 26 332 3.2 0.0 0.00 0.00 0.00 100
20260905133727 26 9 3.2 0.0 0.00 0.00 0.00 100
20260905133256 26 329 6.4 0.0 0.00 0.00 0.00 100
20260905132756 26 340 1.6 0.0 0.00 0.00 0.00 100
20260905132256 25 340 3.2 0.0 0.00 0.00 0.00 100
20260905131813 25 340 4.8 0.0 0.00 0.00 0.00 100
20260905131756 25 325 6.4 0.0 0.00 0.00 0.00 100
20260905131727 25 340 4.8 0.0 0.00 0.00 0.00 100
20260905131256 25 351 6.4 0.0 0.00 0.00 0.00 100
20260905130756 25 284 6.4 0.0 0.00 0.00 0.00 100
20260905130727 25 309 3.2 0.0 0.00 0.00 0.00 100
20260905130256 25 9 3.2 0.0 0.00 0.00 0.00 100
20260905125756 25 310 8.0 0.0 0.00 0.00 0.00 100
20260905125726 25 342 4.8 0.0 0.00 0.00 0.00 100
20260905125255 25 9 1.6 0.0 0.00 0.00 0.00 100
20260905124755 24 305 3.2 0.0 0.00 0.00 0.00 100
20260905124727 24 340 1.6 0.0 0.00 0.00 0.00 100
20260905124255 24 279 1.6 0.0 0.00 0.00 0.00 100
20260905123755 24 307 1.6 0.0 0.00 0.00 0.00 100
20260905123727 24 321 3.2 0.0 0.00 0.00 0.00 100
20260905123255 24 307 3.2 0.0 0.00 0.00 0.00 100
20260905122755 23 349 1.6 0.0 0.00 0.00 0.00 100
20260905122727 23 311 3.2 0.0 0.00 0.00 0.00 100
20260905122255 23 299 1.6 0.0 0.00 0.00 0.00 100
20260905121726 23 334 3.2 0.0 0.00 0.00 0.00 100
20260905121255 23 330 1.6 0.0 0.00 0.00 0.00 100
20260905120755 23 11 3.2 0.0 0.00 0.00 0.00 100
20260905120727 23 311 1.6 0.0 0.00 0.00 0.00 100
20260905120255 23 344 1.6 0.0 0.00 0.00 0.00 100
20260905115755 23 319 4.8 0.0 0.00 0.00 0.00 100
20260905115726 23 330 4.8 0.0 0.00 0.00 0.00 100
20260905115255 23 294 3.2 0.0 0.00 0.00 0.00 100
20260905114755 22 344 3.2 0.0 0.00 0.00 0.00 100
20260905114727 22 318 4.8 0.0 0.00 0.00 0.00 100
20260905114255 22 252 1.6 0.0 0.00 0.00 0.00 100